[[{"header":{"parameterUnit":"m.s-1","parameterCategory":1,"la1":30.2991,"la2":30.254,"lo1":-89.0895,"lo2":-89.0444,"dy":0.0017,"dx":0.0017,"nx":28,"ny":28,"refTime":"2025-01-22T09:00:00:Z","depth":0,"parameterNumber":2,"parameterNumberName":"U-component_of_WINDS"},"data":[0,0,0,0,0,0,0,0,0,0,0,0,0,0,0,0,0,0,0,0,0,0,0,0,0,0,0,0,0,0,0,0,0,0,0,0,0,0,0,0,0,0,0,0,0,0,0,0,0,0,0,0,0,0,0,0,0,0,0.0105,0.0104,0,0.0069,0.0069,0.0069,0.0071,0.0071,0.0072,0.0072,0.0035,0.0034,0.0032,0,0,0,0,0,0,0,0,0,0,0,0,0,0.0174,0.0172,0.0105,0.0104,0.0104,0.0069,0.0069,0.0068,0.0071,0.0071,0.0072,0.0073,0.0036,0.0034,0.0032,0,0,0,0,0,0,0,0,0,0,0,0,0,0.0141,0.0172,0.0105,0.0101,0.01,0.007,0.0069,0.0068,0.0071,0.0071,0.0072,0.0073,0.0036,0.0034,0.0032,0.0003,0,0,0.0025,0.0024,0,0,0,0,0,0,0,0,0.0143,0.0139,0.0102,0.0101,0.01,0.0075,0.008,0.0046,0.007,0.0082,0.0072,0.0073,0.0048,0.0045,0.0036,0.0001,-0.0001,0.0025,0.0024,0.0023,0.0022,0,0,0,0,0,0,0,0.0146,0.014,0.0091,0.0101,0.01,0.0101,0.0097,0.0073,0.0061,0.0081,0.0081,0.0077,0.0047,0.0038,0.0035,-0.0001,0.0025,0.0023,0.0022,0.0021,-0.0061,-0.0062,0,0,0,0,0,0,0.0149,0.0142,0.0092,0.009,0.0124,0.0099,0.0095,0.0082,0.0061,0.0059,0.0076,0.0077,0.0042,0.0038,0.0034,-0.0001,0.0023,0.0021,0.0019,-0.0061,-0.0062,-0.0063,0,0,0,0,0,0,0.015,0.0144,0.0093,0.0116,0.011,0.0097,0.0083,0.0081,0.0072,0.0058,0.0055,0.0069,0.0042,0.0037,0.0011,-0.0002,0.002,0.0018,-0.006,-0.0061,-0.0062,-0.0072,0,0,0,0,0,0,0.0152,0.0145,0.0133,0.0116,0.0108,0.007,0.0082,0.008,0.0069,0.0069,0.005,0.0048,0.0042,0.0014,0.0009,-0.0005,0.0016,-0.0059,-0.006,-0.0062,-0.007,-0.0073,-0.0076,0,0,0,0,0,0.0155,0.0132,0.0133,0.0127,0.0094,0.007,0.0065,0.006,0.0068,0.0056,0.0047,0.0049,0.0,0.0011,0.0005,-0.0009,-0.0058,-0.006,-0.0062,-0.0069,-0.0073,-0.0076,0,0,0,0,0,0,0.0148,0.0129,0.013,0.0101,0.0087,0.007,0.0055,0.0056,0.0039,0.0041,0.0034,0.003,0.0003,-0.0006,0.0007,-0.0038,-0.0028,-0.0031,-0.0031,-0.0035,-0.0038,-0.0035,0.0014,0,0,0,0,0,0.0143,0.0125,0.011,0.0085,0.0078,0.0068,0.0057,0.0054,0.0039,0.0033,0.0022,0.0007,-0.0011,-0.0024,-0.0042,-0.0071,-0.0075,-0.0084,-0.0087,-0.0089,-0.0092,-0.0108,-0.0112,-0.0069,-0.0069,-0.0069,0,0,0.0132,0.012,0.0109,0.0083,0.0072,0.0054,0.0063,0.0043,0.0029,0.003,0.0004,-0.0004,-0.0021,-0.0049,-0.0062,-0.0058,-0.0104,-0.0091,-0.0093,-0.0095,-0.011,-0.0114,-0.0118,-0.007,-0.007,-0.007,0,0,0.0104,0.0093,0.0071,0.006,0.0043,0.0037,0.0032,0.0015,0.0009,-0.0016,-0.0015,-0.0032,-0.0064,-0.0076,-0.0086,-0.0118,-0.0116,-0.0123,-0.0137,-0.0153,-0.0156,-0.0159,-0.017,-0.0174,-0.0126,-0.0126,-0.0126,0,0.0093,0.0065,0.006,0.004,0.0029,0.003,0.0009,-0.0002,-0.0024,-0.0032,-0.0026,-0.0065,-0.0077,-0.0107,-0.0115,-0.0123,-0.0129,-0.0121,-0.0155,-0.0158,-0.0161,-0.0172,-0.0176,-0.0127,-0.0127,-0.0126,-0.0126,0,0.0052,0.0033,0.0018,-0.0003,-0.0015,-0.0036,-0.0044,-0.0056,-0.0058,-0.0064,-0.009,-0.0103,-0.0124,-0.0131,-0.0133,-0.0162,-0.0158,-0.0154,-0.0144,-0.0166,-0.0176,-0.018,-0.0128,-0.0127,-0.0127,-0.0127,0,0,0.0017,-0.0005,-0.001,-0.0019,-0.0037,-0.0052,-0.0073,-0.0092,-0.0102,-0.0117,-0.0134,-0.016,-0.0156,-0.0168,-0.0171,-0.0184,-0.0208,-0.0178,-0.0178,-0.0183,-0.024,-0.0243,-0.0248,-0.0207,-0.0208,-0.0208,-0.0238,0,-0.0013,-0.0049,-0.0053,-0.0085,-0.0103,-0.0102,-0.0119,-0.0132,-0.0139,-0.0155,-0.0162,-0.0181,-0.0174,-0.018,-0.0194,-0.0202,-0.0219,-0.02,-0.0223,-0.0224,-0.0219,-0.0253,-0.0257,-0.0285,-0.0242,-0.0243,-0.0244,0,-0.0054,-0.0069,-0.0102,-0.0117,-0.0125,-0.0141,-0.0158,-0.0173,-0.0188,-0.0191,-0.0204,-0.0205,-0.0226,-0.0214,-0.0243,-0.0229,-0.0239,-0.0245,-0.0246,-0.0248,-0.0235,-0.0257,-0.0294,-0.0298,-0.025,-0.0249,-0.0249,0,-0.0075,-0.0104,-0.0128,-0.0136,-0.0154,-0.0165,-0.0173,-0.0186,-0.0197,-0.0213,-0.022,-0.0237,-0.0247,-0.0261,-0.0266,-0.0257,-0.0295,-0.0284,-0.0298,-0.0298,-0.0307,-0.0306,-0.0346,-0.0313,-0.0312,-0.0312,-0.0312,0,-0.0109,-0.013,-0.0138,-0.0153,-0.0175,-0.018,-0.0202,-0.021,-0.0222,-0.0238,-0.0238,-0.0253,-0.0259,-0.0275,-0.028,-0.0302,-0.0307,-0.0311,-0.0312,-0.0311,-0.031,-0.0317,-0.0315,-0.0313,-0.0313,-0.0313,-0.0313,0,-0.0138,-0.0144,-0.017,-0.0184,-0.0188,-0.0204,-0.0217,-0.0231,-0.0237,-0.0257,-0.0262,-0.0271,-0.029,-0.0297,-0.032,-0.0323,-0.0349,-0.0349,-0.0344,-0.0344,-0.0359,-0.0357,-0.0405,-0.0411,-0.0373,-0.0374,-0.0374,0,-0.0159,-0.0174,-0.019,-0.02,-0.0209,-0.0226,-0.0236,-0.0241,-0.0253,-0.0269,-0.0281,-0.03,-0.0315,-0.0344,-0.0354,-0.0371,-0.0371,-0.0386,-0.0373,-0.0372,-0.0371,-0.037,-0.0371,-0.0389,-0.0389,-0.0389,-0.039,0,-0.0195,-0.0197,-0.0213,-0.023,-0.0242,-0.0256,-0.0269,-0.0277,-0.0284,-0.0297,-0.0315,-0.0327,-0.035,-0.0368,-0.0385,-0.0394,-0.0393,-0.0393,-0.0398,-0.0397,-0.0394,-0.0395,-0.0351,-0.0392,-0.0392,-0.0392,-0.0392,-0.0392,-0.0221,-0.0234,-0.0247,-0.0264,-0.0274,-0.0286,-0.03,-0.0307,-0.0323,-0.0341,-0.0343,-0.0363,-0.0377,-0.04,-0.0409,-0.0424,-0.042,-0.0427,-0.0428,-0.043,-0.0431,-0.0391,-0.0428,-0.0428,-0.0427,-0.0427,-0.0427,0,-0.0257,-0.0265,-0.0281,-0.0298,-0.0312,-0.0309,-0.0323,-0.0334,-0.0352,-0.0364,-0.0379,-0.04,-0.0417,-0.0427,-0.0444,-0.0455,-0.0455,-0.0459,-0.0459,-0.0461,-0.0433,-0.0428,-0.0459,-0.0459,-0.0459,-0.0459,-0.0459,-0.0459,-0.0277,-0.03,-0.0304,-0.0331,-0.0339,-0.0358,-0.0366,-0.0377,-0.0387,-0.041,-0.0425,-0.0431,-0.0442,-0.046,-0.0476,-0.0478,-0.0484,-0.0489,-0.0491,-0.0466,-0.0463,-0.046,-0.0454,-0.0491,-0.0491,-0.0517,-0.0517,-0.0518]},{"header":{"parameterUnit":"m.s-1","parameterCategory":1,"la1":30.2991,"la2":30.254,"lo1":-89.0895,"lo2":-89.0444,"dy":0.0017,"dx":0.0017,"nx":28,"ny":28,"refTime":"2025-01-22T09:00:00:Z","depth":0,"parameterNumber":3,"parameterNumberName":"V-component_of_WINDS"},"data":[0,0,0,0,0,0,0,0,0,0,0,0,0,0,0,0,0,0,0,0,0,0,0,0,0,0,0,0,0,0,0,0,0,0,0,0,0,0,0,0,0,0,0,0,0,0,0,0,0,0,0,0,0,0,0,0,0,0,-3.5665,-3.5666,0,-3.576,-3.5761,-3.5762,-3.5713,-3.5711,-3.5708,-3.5706,-3.5801,-3.5805,-3.581,0,0,0,0,0,0,0,0,0,0,0,0,0,-3.5439,-3.5444,-3.5665,-3.5666,-3.5667,-3.576,-3.5761,-3.5762,-3.5714,-3.5711,-3.5708,-3.5705,-3.5799,-3.5805,-3.5811,0,0,0,0,0,0,0,0,0,0,0,0,0,-3.5536,-3.5445,-3.5665,-3.5654,-3.5654,-3.576,-3.5761,-3.5763,-3.5714,-3.5711,-3.5707,-3.5703,-3.5797,-3.5804,-3.5811,-3.5932,0,0,-3.5834,-3.5837,0,0,0,0,0,0,0,0,-3.5531,-3.5544,-3.5655,-3.5655,-3.5655,-3.5721,-3.5716,-3.5819,-3.5715,-3.5692,-3.5706,-3.5701,-3.5777,-3.5786,-3.5812,-3.5936,-3.594,-3.5834,-3.5839,-3.5842,-3.5844,0,0,0,0,0,0,0,-3.5524,-3.554,-3.5702,-3.5656,-3.5657,-3.5644,-3.5654,-3.5736,-3.5754,-3.5693,-3.569,-3.5702,-3.5776,-3.5805,-3.5814,-3.5942,-3.5834,-3.5841,-3.5845,-3.5848,-3.617,-3.6174,0,0,0,0,0,0,-3.5518,-3.5535,-3.5699,-3.5705,-3.5583,-3.5651,-3.5662,-3.5704,-3.5753,-3.5757,-3.5705,-3.5699,-3.5794,-3.5805,-3.5817,-3.5961,-3.5842,-3.5849,-3.5853,-3.6166,-3.6171,-3.6175,0,0,0,0,0,0,-3.5514,-3.5533,-3.5696,-3.5619,-3.5639,-3.5659,-3.5706,-3.5708,-3.5736,-3.5762,-3.5765,-3.5731,-3.5792,-3.5806,-3.5904,-3.5964,-3.5852,-3.5859,-3.6161,-3.6167,-3.6173,-3.6251,0,0,0,0,0,0,-3.5507,-3.5532,-3.5578,-3.5621,-3.5643,-3.5782,-3.571,-3.5712,-3.5749,-3.5742,-3.5787,-3.5791,-3.579,-3.5893,-3.5911,-3.5972,-3.5864,-3.6155,-3.6164,-3.6171,-3.6243,-3.626,-3.6273,0,0,0,0,0,-3.5499,-3.5596,-3.5581,-3.5601,-3.5702,-3.5786,-3.5798,-3.5796,-3.5754,-3.5801,-3.5817,-3.5789,-3.5954,-3.5903,-3.5923,-3.5987,-3.6152,-3.6161,-3.617,-3.6237,-3.6256,-3.6273,0,0,0,0,0,0,-3.5559,-3.5601,-3.5585,-3.5699,-3.5739,-3.5777,-3.5836,-3.5817,-3.5869,-3.5861,-3.5855,-3.5865,-3.5967,-3.5986,-3.5929,-3.6106,-3.6046,-3.606,-3.609,-3.6109,-3.6123,-3.6117,-3.587,0,0,0,0,0,-3.5586,-3.5651,-3.5684,-3.5781,-3.5802,-3.5816,-3.5852,-3.5847,-3.5888,-3.5905,-3.5929,-3.5969,-3.603,-3.607,-3.6128,-3.6246,-3.6255,-3.6299,-3.6314,-3.6326,-3.6339,-3.6403,-3.6423,-3.6206,-3.6206,-3.6206,0,0,-3.5641,-3.5672,-3.5714,-3.5794,-3.5824,-3.5892,-3.583,-3.5904,-3.5954,-3.5916,-3.601,-3.6029,-3.6073,-3.6182,-3.623,-3.6201,-3.6401,-3.6338,-3.6348,-3.6354,-3.6415,-3.6435,-3.6454,-3.6212,-3.6211,-3.621,0,0,-3.5777,-3.5807,-3.5891,-3.5923,-3.5971,-3.5979,-3.6,-3.6041,-3.6053,-3.6147,-3.612,-3.6178,-3.6283,-3.6317,-3.6347,-3.6496,-3.6472,-3.6514,-3.6592,-3.6655,-3.6672,-3.6687,-3.6741,-3.676,-3.6526,-3.6526,-3.6527,0,-3.5839,-3.594,-3.5937,-3.6013,-3.6049,-3.6018,-3.6104,-3.6135,-3.6198,-3.6224,-3.619,-3.6322,-3.6349,-3.6466,-3.6502,-3.6527,-3.655,-3.651,-3.667,-3.6685,-3.67,-3.6751,-3.6771,-3.6531,-3.6531,-3.653,-3.653,0,-3.6015,-3.6086,-3.6148,-3.6212,-3.6254,-3.6335,-3.6343,-3.6386,-3.6377,-3.6389,-3.6485,-3.6518,-3.6582,-3.6609,-3.66,-3.6724,-3.6704,-3.6671,-3.661,-3.6725,-3.6773,-3.6793,-3.6538,-3.6537,-3.6535,-3.6534,0,0,-3.6192,-3.6252,-3.6275,-3.6304,-3.6355,-3.6409,-3.6487,-3.6551,-3.6588,-3.6633,-3.6699,-3.6789,-3.6758,-3.6793,-3.6788,-3.6843,-3.6959,-3.6803,-3.6804,-3.6831,-3.7098,-3.7124,-3.7147,-3.6944,-3.6947,-3.695,-3.7095,0,-3.6331,-3.647,-3.6469,-3.6597,-3.6662,-3.6634,-3.6703,-3.6741,-3.6754,-3.6811,-3.6824,-3.6889,-3.6843,-3.6864,-3.6917,-3.6934,-3.7013,-3.6923,-3.7005,-3.7008,-3.6996,-3.7172,-3.7199,-3.7334,-3.7113,-3.7117,-3.7119,0,-3.6513,-3.6565,-3.67,-3.6741,-3.6769,-3.683,-3.6889,-3.6943,-3.6985,-3.6991,-3.7031,-3.7017,-3.7096,-3.7033,-3.7143,-3.7082,-3.7115,-3.7128,-3.7133,-3.7141,-3.7071,-3.7185,-3.7377,-3.7397,-3.7148,-3.7146,-3.7144,0,-3.6629,-3.6732,-3.6827,-3.6852,-3.6903,-3.6947,-3.697,-3.7008,-3.7047,-3.7097,-3.7122,-3.7181,-3.7213,-3.7259,-3.7261,-3.7215,-3.7372,-3.7309,-3.7379,-3.7379,-3.7414,-3.7412,-3.7614,-3.7434,-3.7433,-3.7433,-3.7433,0,-3.6785,-3.6869,-3.688,-3.6938,-3.7031,-3.7029,-3.7121,-3.7139,-3.7174,-3.7235,-3.7214,-3.7271,-3.7271,-3.7329,-3.7331,-3.7422,-3.7436,-3.7443,-3.7443,-3.7446,-3.7445,-3.7468,-3.7459,-3.7438,-3.7437,-3.7436,-3.7435,0,-3.6931,-3.6941,-3.7043,-3.7083,-3.7094,-3.7161,-3.7195,-3.725,-3.7261,-3.7339,-3.7357,-3.7374,-3.7442,-3.7449,-3.7527,-3.7528,-3.7638,-3.7627,-3.7624,-3.7623,-3.7693,-3.7687,-3.7918,-3.7948,-3.7747,-3.7749,-3.7751,0,-3.7031,-3.7095,-3.7142,-3.7182,-3.7207,-3.7271,-3.7311,-3.731,-3.7352,-3.7406,-3.7454,-3.752,-3.7573,-3.7682,-3.7701,-3.7761,-3.7752,-3.7829,-3.7761,-3.7762,-3.7754,-3.7751,-3.7757,-3.7842,-3.7844,-3.7846,-3.7848,0,-3.7207,-3.7209,-3.7267,-3.7327,-3.7375,-3.7422,-3.7466,-3.75,-3.7505,-3.7552,-3.7622,-3.7663,-3.7744,-3.7809,-3.7868,-3.7891,-3.7871,-3.7869,-3.7888,-3.7892,-3.7889,-3.7892,-3.7661,-3.7864,-3.7862,-3.7861,-3.786,-3.7859,-3.7333,-3.7389,-3.7431,-3.7496,-3.753,-3.7572,-3.7626,-3.7644,-3.7702,-3.7769,-3.7764,-3.7841,-3.7882,-3.7959,-3.7986,-3.8046,-3.802,-3.8048,-3.8056,-3.8063,-3.8071,-3.7878,-3.8056,-3.8056,-3.8056,-3.8055,-3.8055,0,-3.7508,-3.7534,-3.7595,-3.7658,-3.7709,-3.7686,-3.7734,-3.7778,-3.7846,-3.7886,-3.7939,-3.8019,-3.8083,-3.8107,-3.8169,-3.8212,-3.8205,-3.8229,-3.8226,-3.8231,-3.8089,-3.8067,-3.8234,-3.8234,-3.8234,-3.8234,-3.8234,-3.8234,-3.7606,-3.77,-3.7707,-3.7817,-3.7842,-3.7918,-3.7947,-3.7986,-3.8018,-3.8109,-3.8162,-3.8177,-3.8211,-3.8275,-3.8333,-3.8338,-3.8362,-3.8391,-3.8392,-3.8259,-3.8241,-3.8224,-3.8203,-3.8396,-3.8396,-3.8529,-3.8531,-3.8531]}]]